Tracking 19149 objects as of 22-Apr-2018
HD Live streaming from Space Station
objects crossing your sky now

FENGYUN 1C DEB

Track FENGYUN 1C DEB now!
10-day predictions


NORAD ID: 37069
Int'l Code: 1999-025EFD
Perigee: 815.2 km
Apogee: 1,513.4 km
Inclination: 95.8 °
Period: 108.5 minutes
Semi major axis: 7535 km
RCS: 0.0144 m2 (small)
Launch date: May 10, 1999
Source: People's Republic of China (PRC)
Launch site: Taiyaun Space Center, China (TSC)

Note: This is SATELLITE DEBRIS
aabbcc
Your satellite tracking list
Your tracking list is empty




NASA's NSSDC Master Catalog

Two Line Element Set (TLE):
1 37069U 99025EFD 18104.37621947  .00000430  00000-0  55104-3 0  9998
2 37069  95.8422 158.3229 0463262 140.0359 223.5856 13.27245085504874
Source of the keplerian elements: AFSPC